Powrót do katalogu

COSMOS 2608

AktywnyMilitariaPO
NORAD 67682·PAYLOAD·🇷🇺 Russia

Wystrzelony Feb 5, 2026 z Plesetsk Cosmodrome

Loading…

Następne Przeloty (najbliższe 24 godziny)

TLE

ŚwieżeSource: Space-Track

Epoka: Sep 14, 2026, 14:18 UTC

1 67682U 26023J   26257.59615113  .00008603  00000-0  32620-3 0  9998
2 67682  96.6159 311.4957 0021201 153.4167 206.8166 15.26861780 33638

Śledź COSMOS 2608 w czasie rzeczywistym z AllMySat

Download on the App Store